Tracking 30116 objects as of 10-Feb-2025
HD Live streaming from Space Station
objects crossing your sky now

STARLINK-32741

Track STARLINK-32741 now!
10-day predictions
STARLINK-32741 is classified as:


NORAD ID: 62526
Int'l Code: 2025-004R
Perigee: 420.9 km
Apogee: 425.3 km
Inclination: 43.0 °
Period: 92.9 minutes
Semi major axis: 6794 km
RCS: Unknown
Launch date: January 8, 2025
Source: United States (US)
Launch site: AIR FORCE EASTERN TEST RANGE (AFETR)
Your satellite tracking list
Your tracking list is empty




NASA's NSSDC Master Catalog

Two Line Element Set (TLE):
1 62526U 25004R   25041.38124690 -.00032984  00000-0 -56498-3 0  9990
2 62526  42.9978 279.4510 0003296 299.6133  60.4399 15.50263108  6416
Source of the keplerian elements: AFSPC